FW4321 New York NY US current weather conditions

sailwx.info

Wind from 301 at 0 knots gusting 6

Air temperature 1.1° C
Dewpoint -0.3° C

Last reported at 2019-Dec-11 10:01 UTC.
Time now 2019-Dec-11 10:43 UTC

Location: N 40°46' W 073°57'.
View on Google Maps.

See reports from other nearby stations

  
Tides and Currents Weather Stations Pressure Air Temp Water Temp Dewpoint Dewpoint Depression Visibility Wind Speed Wind Dir Waves Ship Positions
date/time (UTC)wind fromknots sea level pressurealtimeterstation pressurevisibilityair tempwater tempwave heightnotes
2019-Dec-11 10:01 301 0 gusting 6 1.1
2019-Dec-11 09:46 355 0 gusting 3 1.1
2019-Dec-11 09:30 320 0 gusting 5 1.1
2019-Dec-11 09:16 284 0 gusting 7 1.1
2019-Dec-11 09:02 360 2 gusting 7 1.7
2019-Dec-11 08:46 302 0 gusting 6 1.7
2019-Dec-11 08:31 071 1 gusting 5 1.7
2019-Dec-11 08:15 299 1 gusting 8 2.2
2019-Dec-11 08:00 360 3 gusting 6 2.2
2019-Dec-11 07:45 360 2 gusting 8 2.2
2019-Dec-11 07:30 360 1 gusting 5 2.2
2019-Dec-11 07:15 360 2 gusting 6 2.2
2019-Dec-11 07:03 360 1 gusting 6 2.8
2019-Dec-11 07:00 360 1 gusting 6 2.8
2019-Dec-11 06:48 360 1 gusting 7 2.8
2019-Dec-11 06:33 309 2 gusting 4 3.3
2019-Dec-11 06:16 271 1 gusting 8 3.9
2019-Dec-11 06:01 312 1 gusting 5 3.9
2019-Dec-11 05:47 171 1 gusting 7 4.4
2019-Dec-11 05:32 222 1 gusting 8 4.4
2019-Dec-11 05:16 193 3 gusting 10 4.4
2019-Dec-11 05:01 165 2 gusting 8 4.4
2019-Dec-11 04:46 189 1 gusting 8 4.4
2019-Dec-11 04:33 049 4 gusting 13 4.4
2019-Dec-11 04:20 275 2 gusting 7 5.6
2019-Dec-11 04:01 299 3 gusting 8 6.1
2019-Dec-11 03:47 234 3 gusting 8 6.1
2019-Dec-11 03:31 205 6 gusting 11 6.7
2019-Dec-11 03:15 288 2 gusting 13 7.2
2019-Dec-11 03:01 271 3 gusting 13 7.2
2019-Dec-11 02:46 186 3 gusting 13 7.8
2019-Dec-11 02:30 216 3 gusting 14 8.3
2019-Dec-11 02:15 317 3 gusting 15 8.9
2019-Dec-11 02:00 182 2 gusting 8 9.4
2019-Dec-11 01:47 273 1 gusting 11 10.0
2019-Dec-11 01:45 203 1 gusting 11 10.0
2019-Dec-11 01:34 192 4 gusting 10 10.6
2019-Dec-11 01:20 199 1 gusting 9 11.1
2019-Dec-11 01:03 170 4 gusting 9 11.7
2019-Dec-11 00:49 261 2 gusting 9 11.7
2019-Dec-11 00:32 208 2 gusting 11 11.7
2019-Dec-11 00:17 238 3 gusting 7 12.2
2019-Dec-11 00:04 223 3 gusting 11 12.2
2019-Dec-10 23:46 234 2 gusting 8 12.8
2019-Dec-10 23:32 324 6 gusting 14 12.8
2019-Dec-10 23:16 188 5 gusting 9 12.8
2019-Dec-10 23:02 194 3 gusting 12 13.3
2019-Dec-10 22:46 202 2 gusting 7 13.3
2019-Dec-10 22:31 205 1 gusting 5 13.3
2019-Dec-10 22:16 220 2 gusting 8 13.3
2019-Dec-10 22:01 209 2 gusting 6 13.3
2019-Dec-10 21:46 304 13.3
2019-Dec-10 21:31 194 0 gusting 14 13.9
2019-Dec-10 21:15 268 3 gusting 10 13.9
2019-Dec-10 21:00 263 3 gusting 9 13.9
2019-Dec-10 20:45 254 0 gusting 8 13.9
2019-Dec-10 20:15 209 4 gusting 9 13.9
2019-Dec-10 20:00 240 1 gusting 6 13.9
2019-Dec-10 19:45 186 2 gusting 9 13.9
2019-Dec-10 19:31 077 2 gusting 6 13.9
2019-Dec-10 19:15 211 0 gusting 7 13.9
2019-Dec-10 19:00 273 0 gusting 9 13.9
2019-Dec-10 18:48 190 1 gusting 7 13.9
2019-Dec-10 18:33 281 1 gusting 5 13.3
2019-Dec-10 18:20 186 3 gusting 8 13.3
2019-Dec-10 18:06 201 3 gusting 12 13.3
2019-Dec-10 17:47 189 0 gusting 5 13.9
2019-Dec-10 17:36 199 2 gusting 8 13.9
2019-Dec-10 17:18 229 0 gusting 10 14.4
2019-Dec-10 17:05 186 2 gusting 6 14.4
2019-Dec-10 16:48 188 3 gusting 8 14.4
2019-Dec-10 16:34 282 1 gusting 5 14.4
2019-Dec-10 16:17 227 1 gusting 5 14.4
2019-Dec-10 16:02 217 1 gusting 8 14.4
2019-Dec-10 15:46 251 3 gusting 10 14.4
2019-Dec-10 15:32 263 2 gusting 10 14.4
2019-Dec-10 15:17 198 2 gusting 9 14.4
2019-Dec-10 15:01 169 4 gusting 8 14.4
2019-Dec-10 14:47 203 1 gusting 10 14.4
2019-Dec-10 14:31 216 2 gusting 13 14.4
2019-Dec-10 14:16 268 4 gusting 13 14.4
2019-Dec-10 14:01 146 4 gusting 9 14.4
2019-Dec-10 13:46 228 0 gusting 8 14.4
2019-Dec-10 13:30 252 2 gusting 9 14.4
2019-Dec-10 13:15 241 2 gusting 6 14.4
2019-Dec-10 13:00 277 1 gusting 6 13.9
2019-Dec-10 12:46 244 2 gusting 10 13.9
2019-Dec-10 12:30 196 2 gusting 6 13.9
2019-Dec-10 12:16 212 2 gusting 6 13.9
2019-Dec-10 12:00 246 1 gusting 8 13.9
2019-Dec-10 11:46 193 3 gusting 8 13.9
2019-Dec-10 11:31 244 0 gusting 7 13.9
2019-Dec-10 11:15 238 2 gusting 8 13.9
2019-Dec-10 11:01 200 0 gusting 5 13.9
2019-Dec-10 10:45 256 13.9
2019-Dec-10 10:31 044 0 gusting 5 14.4
2019-Dec-10 10:15 009 0 gusting 4 14.4
2019-Dec-10 10:00 263 3 gusting 6 14.4
2019-Dec-10 09:45 285 1 gusting 8 14.4
2019-Dec-10 09:30 196 0 gusting 3 14.4
2019-Dec-10 09:15 360 1 gusting 6 14.4
2019-Dec-10 09:00 193 2 gusting 11 14.4
2019-Dec-10 08:45 057 1 gusting 6 14.4
2019-Dec-10 08:30 258 1 gusting 6 14.4
2019-Dec-10 08:15 215 0 gusting 6 13.9
2019-Dec-10 08:00 276 0 gusting 8 13.9
2019-Dec-10 07:45 226 0 gusting 4 13.9
2019-Dec-10 07:30 231 2 gusting 6 13.9
2019-Dec-10 07:16 269 1 gusting 8 13.9
2019-Dec-10 07:02 251 0 gusting 4 13.9
2019-Dec-10 06:47 228 0 gusting 6 13.9
2019-Dec-10 06:31 297 2 gusting 6 13.3
2019-Dec-10 06:17 209 1 gusting 5 13.3
2019-Dec-10 06:02 277 0 gusting 6 13.3
2019-Dec-10 05:46 188 1 gusting 6 13.3
2019-Dec-10 05:32 228 2 gusting 9 13.3
2019-Dec-10 05:01 331 0 gusting 7 12.8
2019-Dec-10 04:47 250 0 gusting 6 12.8
2019-Dec-10 04:31 074 0 gusting 9 12.8
2019-Dec-10 04:17 294 3 gusting 10 12.8
2019-Dec-10 04:01 231 1 gusting 8 12.8
2019-Dec-10 03:46 261 1 gusting 9 12.8
2019-Dec-10 03:31 249 1 gusting 4 12.8
2019-Dec-10 03:16 294 1 gusting 12 12.8
2019-Dec-10 03:01 294 2 gusting 9 12.8
2019-Dec-10 02:46 264 0 gusting 8 12.8
2019-Dec-10 02:31 228 1 gusting 12 12.8
2019-Dec-10 02:16 281 3 gusting 8 12.8
2019-Dec-10 02:01 284 1 gusting 7 13.3
2019-Dec-10 01:46 013 0 gusting 5 12.8
2019-Dec-10 01:30 226 1 gusting 7 12.8
2019-Dec-10 01:15 048 0 gusting 3 12.8
2019-Dec-10 01:01 325 12.2
2019-Dec-10 00:45 132 12.2
2019-Dec-10 00:30 092 12.2
2019-Dec-10 00:16 060 0 gusting 3 12.2
2019-Dec-10 00:01 110 1 gusting 6 12.2
2019-Dec-09 23:45 069 1 gusting 6 11.7
2019-Dec-09 23:30 324 0 gusting 7 11.7
2019-Dec-09 23:15 096 1 gusting 5 11.7
2019-Dec-09 23:00 089 1 gusting 5 11.7
2019-Dec-09 22:45 050 11.7
2019-Dec-09 22:30 031 0 gusting 4 11.7
2019-Dec-09 22:15 080 1 gusting 7 11.7
2019-Dec-09 22:00 226 1 gusting 6 11.7
2019-Dec-09 21:45 276 1 gusting 6 11.7
2019-Dec-09 21:30 342 1 gusting 4 11.7
2019-Dec-09 21:16 086 11.7
2019-Dec-09 21:01 122 11.7
2019-Dec-09 20:47 023 0 gusting 4 11.7
2019-Dec-09 20:32 062 0 gusting 4 11.7
2019-Dec-09 20:16 048 0 gusting 5 11.7
2019-Dec-09 20:01 355 0 gusting 6 11.7
2019-Dec-09 19:47 294 1 gusting 3 11.7
2019-Dec-09 19:31 284 0 gusting 6 11.7
2019-Dec-09 19:16 288 1 gusting 5 12.2
2019-Dec-09 19:01 246 0 gusting 8 12.2
2019-Dec-09 18:46 271 0 gusting 6 11.7
2019-Dec-09 18:31 212 2 gusting 6 11.7
2019-Dec-09 18:16 096 1 gusting 6 11.7
2019-Dec-09 18:01 248 3 gusting 6 12.2
2019-Dec-09 17:46 200 2 gusting 6 12.8
2019-Dec-09 17:31 277 0 gusting 9 12.8
2019-Dec-09 17:16 104 1 gusting 6 12.8
2019-Dec-09 17:01 009 0 gusting 3 12.8
2019-Dec-09 16:46 315 1 gusting 8 12.8
2019-Dec-09 16:30 203 3 gusting 6 12.8
2019-Dec-09 16:15 277 1 gusting 6 12.2
2019-Dec-09 16:00 327 12.2
2019-Dec-09 15:45 281 1 gusting 5 11.7
2019-Dec-09 15:30 075 10.6
2019-Dec-09 15:15 136 0 gusting 3 9.4
2019-Dec-09 15:00 119 1 gusting 3 8.3
2019-Dec-09 14:46 090 1 gusting 3 7.8
2019-Dec-09 14:32 088 0 gusting 2 7.8
2019-Dec-09 14:16 097 0 gusting 3 7.2
2019-Dec-09 14:02 093 0 gusting 3 7.2
2019-Dec-09 13:46 090 1 gusting 7 6.7
2019-Dec-09 13:32 088 6.7
2019-Dec-09 13:15 116 0 gusting 6 6.7
2019-Dec-09 13:01 119 1 gusting 3 6.7
2019-Dec-09 12:46 092 1 gusting 3 6.7
2019-Dec-09 12:31 085 1 gusting 3 6.1
2019-Dec-09 12:16 097 6.1
2019-Dec-09 12:00 098 0 gusting 3 6.1
2019-Dec-09 11:45 096 0 gusting 3 6.1
2019-Dec-09 11:31 084 0 gusting 5 6.1
2019-Dec-09 11:16 099 2 gusting 5 6.1
2019-Dec-09 11:01 078 3 gusting 6 6.1
2019-Dec-09 10:45 085 2 gusting 5 6.1
2019-Dec-09 10:30 092 3 gusting 6 6.1
2019-Dec-09 10:15 082 1 gusting 5 6.1
2019-Dec-09 10:00 084 1 gusting 3 6.1